N9XP-9 Weather Reports


time (UTC)temp
F
wind
direction
speed
knots
gust
knots
rain 1hr
in
rain 24hr
in
rain mn
in
humidity
%
barometer
mb
20260506211553 57 219 1.7 11.3 0.00 0.00 0.00 39 1013.9
20260506210050 57 350 2.6 10.4 0.00 0.00 0.00 36 1013.9
20260506204552 56 237 1.7 6.1 0.00 0.00 0.00 39 1013.9
20260506203048 55 290 0.9 7.8 0.00 0.00 0.00 40 1014.1
20260506201548 56 184 2.6 8.7 0.00 0.00 0.00 35 1014.0
20260506200052 57 275 2.6 11.3 0.00 0.00 0.00 33 1014.2
20260506194548 57 178 2.6 12.2 0.00 0.00 0.00 34 1014.3
20260506193144 57 147 2.6 9.6 0.00 0.00 0.00 34 1014.3
20260506191550 56 53 2.6 7.8 0.00 0.00 0.00 36 1014.5
20260506190043 55 167 3.5 7.0 0.00 0.00 0.00 36 1014.4
20260506184541 55 354 1.7 7.0 0.00 0.00 0.00 38 1014.5
20260506183043 55 15 0.9 5.2 0.00 0.00 0.00 36 1014.4
20260506181549 56 162 0.9 12.2 0.00 0.00 0.00 37 1014.5
20260506180046 55 140 0.9 7.8 0.00 0.00 0.00 38 1014.4
20260506174537 54 245 1.7 7.0 0.00 0.00 0.00 39 1014.5
20260506173041 54 174 1.7 7.8 0.00 0.00 0.00 39 1014.7
20260506171535 55 359 1.7 5.2 0.00 0.00 0.00 41 1014.7
20260506170035 54 161 0.9 6.1 0.00 0.00 0.00 39 1014.8
20260506164534 55 187 3.5 9.6 0.00 0.00 0.00 38 1014.8
20260506163037 54 356 0.9 4.3 0.00 0.00 0.00 40 1014.7
20260506161535 54 337 1.7 11.3 0.00 0.00 0.00 39 1014.8
20260506160031 54 264 0.9 6.1 0.00 0.00 0.00 40 1014.7
20260506154529 53 115 0.9 6.1 0.00 0.00 0.00 41 1014.8
20260506153026 53 142 1.7 6.1 0.00 0.00 0.00 42 1014.7
20260506151524 52 236 0.9 7.8 0.00 0.00 0.00 42 1014.9
20260506150024 52 113 1.7 7.0 0.00 0.00 0.00 42 1014.9
20260506144624 52 281 0.0 3.5 0.00 0.00 0.00 42 1014.9
20260506143025 51 301 0.9 4.3 0.00 0.00 0.00 44 1015.0
20260506141517 50 162 2.6 5.2 0.00 0.00 0.00 46 1014.9
20260506140013 50 168 1.7 4.3 0.00 0.00 0.00 48 1014.9
20260506134511 48 166 0.0 2.6 0.00 0.00 0.00 53 1014.7
20260506133010 48 107 0.0 1.7 0.00 0.00 0.00 57 1014.4
20260506131508 46 165 0.0 0.9 0.00 0.00 0.00 59 1014.2
20260506130006 45 64 0.0 0.9 0.00 0.00 0.00 65 1014.3
20260506124503 43 10 0.0 0.9 0.00 0.03 0.00 74 1014.1
20260506123002 41 5 0.0 0.0 0.00 0.03 0.00 77 1013.8
20260506121600 40 6 0.0 0.0 0.00 0.03 0.00 81 1013.6
20260506120103 39 6 0.0 0.0 0.00 0.03 0.00 82 1013.5
20260506114557 38 8 0.0 0.0 0.00 0.05 0.00 86 1013.4
20260506113059 37 6 0.0 0.0 0.00 0.05 0.00 87 1013.2
20260506111558 37 6 0.0 0.0 0.00 0.05 0.00 88 1013.1
20260506110053 36 3 0.0 0.0 0.00 0.05 0.00 87 1013.1
20260506104556 36 4 0.0 0.0 0.00 0.05 0.00 85 1012.9
20260506103049 37 2 0.0 0.0 0.00 0.05 0.00 82 1012.6
20260506101545 38 1 0.0 0.0 0.00 0.05 0.00 81 1012.3
20260506100043 38 5 0.0 0.9 0.00 0.05 0.00 80 1012.2
20260506094540 38 352 0.0 0.0 0.00 0.05 0.00 78 1012.4
20260506093042 39 350 0.0 0.0 0.00 0.05 0.00 77 1012.3
20260506091542 39 349 0.0 0.0 0.00 0.05 0.00 78 1012.2
20260506090040 38 350 0.0 0.0 0.00 0.05 0.00 77 1012.3
20260506084538 38 351 0.0 0.0 0.00 0.05 0.00 76 1012.3
20260506083037 39 351 0.0 0.0 0.00 0.05 0.00 74 1012.0
20260506081530 40 352 0.0 0.0 0.00 0.05 0.00 68 1012.0
20260506073017 45 343 0.0 1.7 0.00 0.05 0.00 56 1011.9
20260506071516 45 4 0.9 4.3 0.00 0.05 0.00 55 1011.6
20260506061505 47 13 0.9 5.2 0.00 0.05 0.00 52 1011.6
20260506044552 50 353 0.0 3.5 0.00 0.05 0.05 47 1010.7
20260506043049 50 341 0.9 3.5 0.00 0.05 0.05 46 1010.9
20260506041554 50 342 0.0 2.6 0.00 0.05 0.05 46 1011.1
20260506040047 51 352 0.9 2.6 0.00 0.05 0.05 47 1011.1
20260506034552 50 341 0.0 3.5 0.00 0.05 0.05 51 1010.7
20260506033049 49 106 0.0 0.9 0.00 0.05 0.05 56 1010.9
20260506031542 49 118 0.0 0.0 0.00 0.05 0.05 53 1010.4
20260506030041 49 120 0.0 0.0 0.00 0.05 0.05 55 1010.5
20260506024542 50 117 0.0 0.0 0.00 0.05 0.05 51 1010.3
20260506023041 50 118 0.0 0.0 0.00 0.05 0.05 51 1010.4
20260506021547 50 118 0.0 0.0 0.00 0.05 0.05 50 1009.9
20260506020037 51 124 0.0 1.7 0.00 0.05 0.05 51 1010.0
20260506014536 51 340 0.0 0.9 0.00 0.05 0.05 49 1009.5
20260506013041 51 339 0.0 0.9 0.00 0.05 0.05 49 1009.6
20260506011558 52 319 0.0 0.9 0.00 0.05 0.05 48 1009.1
20260506010033 52 257 0.0 0.9 0.00 0.05 0.05 47 1009.2
20260506004541 53 349 0.0 1.7 0.00 0.05 0.05 44 1008.9
20260506003033 53 278 0.0 0.9 0.00 0.05 0.05 43 1008.7
20260506001532 53 41 0.0 2.6 0.00 0.05 0.05 42 1008.6
20260506000031 54 26 0.0 1.7 0.00 0.05 0.05 42 1008.8
20260505234531 54 335 0.0 1.7 0.00 0.11 0.05 41 1008.6
20260505233034 54 336 0.0 1.7 0.00 0.11 0.05 40 1008.8
20260505231538 55 5 0.9 4.3 0.00 0.11 0.05 38 1008.8
20260505230031 55 170 0.0 1.7 0.00 0.11 0.05 38 1008.8
20260505224528 55 15 0.9 3.5 0.00 0.11 0.05 38 1008.9
20260505223028 55 119 0.9 5.2 0.00 0.11 0.05 37 1009.0
20260505221529 56 322 0.9 3.5 0.00 0.11 0.05 36 1008.9
20260505220046 55 352 0.0 4.3 0.00 0.11 0.05 38 1009.0
20260505214532 55 316 0.9 4.3 0.00 0.11 0.05 36 1009.2
20260505213026 55 350 0.0 7.0 0.00 0.11 0.05 36 1009.1